When you browse on this site, cookies collect data to enhance your experience and personalize the content and advertising you see.
Visit our Privacy Policy to learn more. By continuing to use the site, you agree to this use of cookies and data.
  • In United Kingdom
  • List of Countries
  • For 7 days
  • Water Temperature
  • Weather Map
  • Weather Widgets
  • user-avatar
    Login

    Hourly Weather Banbridge

    Today, 6 June, Saturday

    Time Temperature Precipitation Wind Pressure Humidity
    00:00 +5°C° 0 mm 9 mps 741 mmHg 76%
    01:00 +5°C° 0.4 mm 9 mps 741 mmHg 82%
    02:00 +6°C° 0.4 mm 9 mps 740 mmHg 88%
    03:00 +6°C° 0.4 mm 9 mps 740 mmHg 95%
    04:00 +6°C° 0.4 mm 8 mps 740 mmHg 95%
    05:00 +7°C° 0.4 mm 8 mps 740 mmHg 95%
    06:00 +7°C° 0.4 mm 8 mps 740 mmHg 95%
    07:00 +7°C° 0.3 mm 8 mps 740 mmHg 94%
    08:00 +9°C° 0.3 mm 8 mps 741 mmHg 94%
    09:00 +9°C° 0.3 mm 8 mps 741 mmHg 94%
    10:00 +10°C° 0.1 mm 8 mps 742 mmHg 89%
    11:00 +10°C° 0.1 mm 8 mps 742 mmHg 85%
    12:00 +11°C° 0.1 mm 8 mps 743 mmHg 80%
    13:00 +11°C° 0.1 mm 8 mps 743 mmHg 78%
    14:00 +11°C° 0.1 mm 7 mps 743 mmHg 76%
    15:00 +12°C° 0.1 mm 7 mps 744 mmHg 73%
    16:00 +11°C° 0 mm 7 mps 744 mmHg 76%
    17:00 +11°C° 0 mm 7 mps 744 mmHg 78%
    18:00 +11°C° 0 mm 7 mps 744 mmHg 81%
    19:00 +10°C° 0 mm 7 mps 745 mmHg 80%
    20:00 +10°C° 0 mm 7 mps 746 mmHg 80%
    21:00 +10°C° 0 mm 7 mps 746 mmHg 79%
    22:00 +9°C° 0 mm 7 mps 746 mmHg 79%
    23:00 +9°C° 0 mm 7 mps 746 mmHg 80%

    Tomorrow, 7 June, Sunday

    Time Temperature Precipitation Wind Pressure Humidity
    00:00 +8°C° 0 mm 7 mps 747 mmHg 80%
    01:00 +8°C° 0 mm 7 mps 747 mmHg 80%
    02:00 +8°C° 0 mm 6 mps 747 mmHg 81%
    03:00 +8°C° 0 mm 6 mps 748 mmHg 81%
    04:00 +8°C° 0 mm 6 mps 748 mmHg 80%
    05:00 +8°C° 0 mm 6 mps 748 mmHg 79%
    06:00 +8°C° 0 mm 7 mps 749 mmHg 78%
    07:00 +9°C° 0 mm 7 mps 749 mmHg 76%
    08:00 +10°C° 0 mm 7 mps 750 mmHg 74%
    09:00 +11°C° 0 mm 7 mps 751 mmHg 71%
    10:00 +12°C° 0 mm 7 mps 751 mmHg 70%
    11:00 +14°C° 0 mm 6 mps 752 mmHg 68%
    12:00 +15°C° 0 mm 6 mps 752 mmHg 67%
    13:00 +15°C° 0 mm 6 mps 752 mmHg 67%
    14:00 +14°C° 0 mm 6 mps 752 mmHg 68%
    15:00 +14°C° 0 mm 6 mps 753 mmHg 68%
    16:00 +14°C° 0 mm 6 mps 753 mmHg 70%
    17:00 +13°C° 0 mm 5 mps 753 mmHg 72%
    18:00 +12°C° 0 mm 5 mps 754 mmHg 74%
    19:00 +10°C° 0 mm 5 mps 754 mmHg 78%
    20:00 +8°C° 0 mm 5 mps 755 mmHg 82%
    21:00 +6°C° 0 mm 4 mps 755 mmHg 87%
    22:00 +6°C° 0 mm 4 mps 755 mmHg 88%
    23:00 +5°C° 0 mm 3 mps 755 mmHg 89%

    Day after tomorrow, 8 June, Monday

    Time Temperature Precipitation Wind Pressure Humidity
    00:00 +5°C° 0 mm 3 mps 756 mmHg 90%
    01:00 +5°C° 0 mm 3 mps 756 mmHg 89%
    02:00 +5°C° 0 mm 3 mps 756 mmHg 89%
    03:00 +6°C° 0 mm 2 mps 756 mmHg 88%
    04:00 +7°C° 0 mm 3 mps 756 mmHg 87%
    05:00 +7°C° 0 mm 3 mps 757 mmHg 85%
    06:00 +8°C° 0 mm 3 mps 757 mmHg 83%
    07:00 +8°C° 0 mm 2 mps 757 mmHg 81%
    08:00 +9°C° 0 mm 2 mps 757 mmHg 79%
    09:00 +10°C° 0 mm 2 mps 758 mmHg 77%
    10:00 +10°C° 0 mm 2 mps 758 mmHg 75%
    11:00 +12°C° 0 mm 2 mps 758 mmHg 73%
    12:00 +13°C° 0 mm 1 mps 758 mmHg 72%
    13:00 +13°C° 0 mm 1 mps 758 mmHg 71%
    14:00 +13°C° 0 mm 1 mps 758 mmHg 71%
    15:00 +14°C° 0 mm 1 mps 758 mmHg 71%
    16:00 +13°C° 0 mm 1 mps 758 mmHg 73%
    17:00 +13°C° 0 mm 1 mps 758 mmHg 74%
    18:00 +13°C° 0 mm 1 mps 758 mmHg 76%
    19:00 +12°C° 0 mm 1 mps 758 mmHg 81%
    20:00 +9°C° 0 mm 2 mps 758 mmHg 85%
    21:00 +8°C° 0 mm 2 mps 759 mmHg 89%
    22:00 +8°C° 0 mm 1 mps 758 mmHg 90%
    23:00 +7°C° 0 mm 1 mps 758 mmHg 91%

    9 June, Tuesday

    Time Temperature Precipitation Wind Pressure Humidity
    00:00 +6°C° 0 mm 1 mps 758 mmHg 92%
    01:00 +6°C° 0 mm 1 mps 758 mmHg 91%
    02:00 +6°C° 0 mm 1 mps 758 mmHg 90%
    03:00 +6°C° 0 mm 1 mps 758 mmHg 89%
    04:00 +7°C° 0 mm 1 mps 758 mmHg 87%
    05:00 +7°C° 0 mm 1 mps 758 mmHg 85%
    06:00 +8°C° 0 mm 1 mps 758 mmHg 84%
    07:00 +10°C° 0 mm 1 mps 758 mmHg 81%
    08:00 +10°C° 0 mm 0 mps 758 mmHg 78%
    09:00 +11°C° 0 mm 0 mps 759 mmHg 74%
    10:00 +13°C° 0 mm 1 mps 759 mmHg 73%
    11:00 +14°C° 0 mm 1 mps 759 mmHg 72%
    12:00 +14°C° 0 mm 1 mps 759 mmHg 71%
    13:00 +15°C° 0 mm 2 mps 758 mmHg 70%
    14:00 +15°C° 0 mm 2 mps 758 mmHg 70%
    15:00 +16°C° 0 mm 2 mps 758 mmHg 69%
    16:00 +15°C° 0 mm 2 mps 758 mmHg 71%
    17:00 +15°C° 0 mm 2 mps 758 mmHg 72%
    18:00 +15°C° 0 mm 2 mps 758 mmHg 74%
    19:00 +14°C° 0 mm 2 mps 758 mmHg 78%
    20:00 +12°C° 0 mm 2 mps 759 mmHg 83%
    21:00 +10°C° 0 mm 2 mps 759 mmHg 87%
    22:00 +9°C° 0 mm 2 mps 759 mmHg 88%
    23:00 +10°C° 0 mm 1 mps 759 mmHg 89%

    10 June, Wednesday

    Time Temperature Precipitation Wind Pressure Humidity
    00:00 +9°C° 0 mm 1 mps 759 mmHg 90%
    01:00 +9°C° 0 mm 1 mps 759 mmHg 91%
    02:00 +9°C° 0 mm 1 mps 759 mmHg 91%
    03:00 +9°C° 0 mm 1 mps 759 mmHg 91%
    04:00 +10°C° 0 mm 1 mps 759 mmHg 88%
    05:00 +11°C° 0 mm 1 mps 759 mmHg 86%
    06:00 +11°C° 0 mm 1 mps 759 mmHg 83%
    07:00 +12°C° 0 mm 1 mps 759 mmHg 80%
    08:00 +13°C° 0 mm 2 mps 759 mmHg 77%
    09:00 +14°C° 0 mm 2 mps 760 mmHg 73%
    10:00 +15°C° 0 mm 2 mps 760 mmHg 71%
    11:00 +16°C° 0 mm 2 mps 760 mmHg 68%
    12:00 +18°C° 0 mm 2 mps 760 mmHg 65%
    13:00 +18°C° 0.1 mm 2 mps 760 mmHg 68%
    14:00 +18°C° 0.1 mm 2 mps 760 mmHg 72%
    15:00 +18°C° 0.1 mm 2 mps 760 mmHg 75%
    16:00 +18°C° 0.1 mm 2 mps 760 mmHg 78%
    17:00 +18°C° 0.1 mm 2 mps 760 mmHg 80%
    18:00 +17°C° 0.1 mm 2 mps 760 mmHg 83%
    19:00 +16°C° 0 mm 2 mps 760 mmHg 86%
    20:00 +14°C° 0 mm 1 mps 760 mmHg 89%
    21:00 +13°C° 0 mm 1 mps 761 mmHg 92%
    22:00 +12°C° 0 mm 1 mps 761 mmHg 92%
    23:00 +11°C° 0 mm 1 mps 760 mmHg 92%

    11 June, Thursday

    Time Temperature Precipitation Wind Pressure Humidity
    00:00 +10°C° 0 mm 1 mps 760 mmHg 93%
    01:00 +10°C° 0 mm 1 mps 760 mmHg 93%
    02:00 +10°C° 0 mm 1 mps 760 mmHg 93%
    03:00 +10°C° 0 mm 1 mps 760 mmHg 93%
    04:00 +11°C° 0 mm 1 mps 760 mmHg 93%
    05:00 +12°C° 0 mm 1 mps 760 mmHg 92%
    06:00 +12°C° 0 mm 1 mps 760 mmHg 91%
    07:00 +14°C° 0 mm 1 mps 760 mmHg 88%
    08:00 +16°C° 0 mm 1 mps 760 mmHg 84%
    09:00 +18°C° 0 mm 1 mps 759 mmHg 80%
    10:00 +19°C° 0 mm 1 mps 759 mmHg 80%
    11:00 +19°C° 0 mm 1 mps 759 mmHg 79%
    12:00 +19°C° 0 mm 1 mps 759 mmHg 79%
    13:00 +20°C° 0 mm 1 mps 759 mmHg 79%
    14:00 +20°C° 0 mm 1 mps 758 mmHg 80%
    15:00 +20°C° 0 mm 1 mps 758 mmHg 80%
    16:00 +19°C° 0 mm 1 mps 758 mmHg 82%
    17:00 +19°C° 0 mm 1 mps 758 mmHg 85%
    18:00 +19°C° 0 mm 1 mps 758 mmHg 87%
    19:00 +18°C° 0 mm 1 mps 758 mmHg 89%
    20:00 +16°C° 0 mm 1 mps 758 mmHg 90%
    21:00 +15°C° 0 mm 1 mps 758 mmHg 92%
    22:00 +15°C° 0 mm 1 mps 758 mmHg 92%
    23:00 +15°C° 0 mm 1 mps 757 mmHg 91%
    Show more